General Rafael Buelna International Airport
MMMZ : rendu visible

Aérodrome :











RETROUVEZ-NOUS SUR...

 
LOGIN :

S'inscrire | Disclaimer

   EN    FR    IT 

 









Légende :    VFR   VFR Marginal   IFR   IFR Intensif   IFR Très Intensif
Visi : 
Plafond : 
>= 8 km
>= 3000ft
5 à 8 km
1000 à 3000 ft
1500m à 5 km
500 à 1000 ft
800 à 1500m
200 à 500 ft
< 800m
< 200 ft
Symboles :   Orages  Brouillard  Fortes neiges  Fortes précipitations  Vent > 20 kt






- Altitude de l'aérodrome : 38 ft
- Code IATA : MZT


MMMZ - General Rafael Buelna International

DERNIER METAR :
  • 271253Z 03003KT 10SM BKN012 OVC220 22/18 A2991 RMK 8/507 HZY RTS

TAF AMD TAF MMMZ
Valide du 27 à 13h jusqu'au 28 à 18h UTC


271257Z 2713/2818 03005KT 5SM BR HZ BKN012 TX29/2722Z TN21/2812Z
FM271600 23010KT P6SM SCT020
FM280500 02005KT P6SM SCT015
FM280900 03005KT 3SM BR BKN012
TEMPO 2810/2814 2SM BR BKN008
FM281600 23010KT P6SM SCT020
FIR MMFR / Amérique du Nord



MET'MAP, la Météo Aéronautique d'un coup d'oeil ! - Copyright ORBIFLY Décembre 2007 - Disclaimer

ORBIFLY MET'MAP TEAM :

Programmation & Développement : Alexandra Zaïnal
Sur une idée originale de : Baudouin d'Aumeries
Assistance à la programmation : Marc-Olivier Méhu
Soutien technique & logistique : Manuel Goepfert

Contact : metmap@orbifly.com




SOURCES & CREDITS :

   NOAA       Earth
Advisory